Location: Auckland
(36.8670°S, 174.7670°E)
Time: 20:55:34
(UTC+12:00)

Courier 1B Rocket - Pass Details

Date: 24 July 2019
Orbit: 920 x 1202 km, 28.2° (Epoch: 25 August)

Event Time Altitude Azimuth Distance (km) Brightness Sun altitude
Rises 04:49:56 0° 291° (WNW) 4,099 - -31.0°
Reaches altitude 10° 04:52:58 10° 297° (WNW) 3,125 - -30.4°
Exits shadow 04:58:35 38° 336° (NNW) 1,709 6.0 -29.3°
Maximum altitude 05:00:13 43° 5° (N) 1,588 6.1 -29.0°
Drops below altitude 10° 05:07:09 10° 73° (ENE) 2,990 8.5 -27.6°
Sets 05:09:59 0° 80° (E) 3,906 9.4 -27.0°
